Location: Unspecified
(0.0000°N, 0.0000°E)
Time: 01:48:27
(UTC+01:00)

JASON 3 - Pass Details

Date: 06 October 2020
Orbit: 1332 x 1343 km, 66.0° (Epoch: 27 October)

Event Time Altitude Azimuth Distance (km) Brightness Sun altitude
Rises 21:08:55 0° 350° (N) 4,343 ? -20.2°
Reaches altitude 10° 21:11:51 10° 355° (N) 3,371 ? -20.9°
Maximum altitude 21:19:44 52° 70° (ENE) 1,612 ? -22.8°
Enters shadow 21:25:33 19° 139° (SE) 2,720 ? -24.3°
